Поиск запчастей

Артикул Бренд Название Остаток Остаток Цена Поставщик Дата обновления
6104110R001 JAC Стеклоподъемник JAC Sunray SOLLERS Atlant левой двери OE 6 9029.71 Альянс Китай 07.05.26
DZ9X259535015 SHACMAN Патрубок SHACMAN SHAANXI X6000 радиатора нижний OE 18 1278.56 Альянс Китай 07.05.26
1002018274 WEICHAI Фильтр топливный SHACMAN SHAANXI МАЗ,КАМАЗ,НЕФАЗ дв.WP тонкой очистки WEICHAI 2 2227.11 Альянс Китай 07.05.26
1309015-H19D0 DONGFENG Диффузор DONGFENG GX дв.ISZ14 вентилятора охлаждения OE 12 7590.23 Альянс Китай 07.05.26
6104100G1P10XA JAC Стеклоподъемник JAC N350,N200 двери левой OE 10 4679.27 Альянс Китай 07.05.26
1000747688 SHACMAN Фильтр топливный SHACMAN SHAANXI X3000 грубой очистки OE 82 2682.17 Альянс Китай 07.05.26
C4890832 JAC Сальник коленвала JAC N200 передний OE 7 5155.72 Альянс Китай 07.05.26
2803109U1555 JAC Облицовка радиатора JAC S5 нижняя OE 11 3975.70 Альянс Китай 07.05.26
2803731-91W/D FAW Спойлер бампера FAW J6,4180,4250 переднего центрального OE 2 1860.50 Альянс Китай 07.05.26
202V091007926-MX MOVELEX Турбокомпрессор SITRAK дв.MC11 MOVELEX 7 29366.00 Альянс Китай 07.05.26
DZ14251340042 SHACMAN Личинка SHACMAN SHAANXI X3000 замка двери левой с ключом OE 10 739.32 Альянс Китай 07.05.26
DZ97189621030 SHACMAN Каркас SHACMAN SHAANXI X3000 бампера переднего OE 7 6050.59 Альянс Китай 07.05.26
201V069040042-MX MOVELEX Прокладка SITRAK HOWO дв.MC11,MC13 корпуса термостата MOVELEX 40 91.73 Альянс Китай 07.05.26
1309011-H19D0 DONGFENG Диффузор DONGFENG GX дв.ISZ14 вентилятора охлаждения OE 12 6250.06 Альянс Китай 07.05.26
5302160-B90/C FAW Петля FAW J7,4180 капота правая OE 2 791.17 Альянс Китай 07.05.26
8401102LD010 JAC Клипса JAC N56 крепления молдинга капота OE 385 13.46 Альянс Китай 07.05.26
12999796 FAW Колодки тормозные FAW 4180 дисковые (4шт.) OE 6 6950.34 Альянс Китай 07.05.26
3101010LD1C0 JAC Диск колесный JAC КАМАЗ Компас-5 OE 29 11252.00 Альянс Китай 07.05.26
4327148 JAC Датчик температуры JAC КАМАЗ Компас выхлопных газов OE 31 8294.05 Альянс Китай 07.05.26
612630020152 SHACMAN Поршень двигателя SHACMAN SHAANXI дв.WP12 (1шт.) OE 36 5950.55 Альянс Китай 07.05.26
612640130730 SHACMAN Реле SHACMAN SHAANXI подогрева мочевины OE 20 3307.42 Альянс Китай 07.05.26
DZ13241330410 SHACMAN Рамка SHACMAN SHAANXI стекла двери левой OE 5 1568.31 Альянс Китай 07.05.26
1101120W5030 JAC Насос топливный JAC N35 SOLLERS Argo 2.0 (на баке) OE 4 4327.73 Альянс Китай 07.05.26
1600100LE190-AM001 JAC Корзина сцепления JAC N56 OE 2 15070.10 Альянс Китай 07.05.26
SZ970000796 SHACMAN Рессора SHACMAN SHAANXI F3000 передняя OE 20 33000.40 Альянс Китай 07.05.26
1000422381 SHACMAN Фильтр топливный SHACMAN SHAANXI ЕВРО-3 дв.WP10 грубой очистки OE 122 1463.39 Альянс Китай 07.05.26
5205060U1510 JAC Щетка стеклоочистителя JAC S5 левая OE 18 2980.99 Альянс Китай 07.05.26
9920180340-B JAC Шпилька колеса JAC OE 89 394.43 Альянс Китай 07.05.26
2902930LE010 JAC Сайлентблок JAC N80 КАМАЗ Компас-9 задней рессоры передний OE 56 539.36 Альянс Китай 07.05.26
5560690X SHACMAN Прокладка двигателя SHACMAN SHAANXI дв.ISM11 нижний комплект OE 1 27966.50 Альянс Китай 07.05.26
190003888459 SHACMAN Гайка SHACMAN SHAANXI X3000 болта крепления амортизатора заднего OE 444 45.75 Альянс Китай 07.05.26
612630010015 JAC Гильза цилиндра JAC N350 OE 29 5536.79 Альянс Китай 07.05.26
1003100FE010B2 JAC Головка блока JAC N56 SOLLERS Atlant (2.7D) (4DE1-1D) (Е5) цилиндров OE 2 158334.00 Альянс Китай 07.05.26
1026603GE JAC Датчик детонации JAC J7 OE 14 2868.44 Альянс Китай 07.05.26
5522101U2152 JAC Пистон JAC S3,S5,J7,T6,X4,JS6 крепления обшивки OE 39 16.51 Альянс Китай 07.05.26
4983020 JAC Прокладка коллектора JAC N75,N80,N120 КАМАЗ Компас-9/12 (ISF 3.8) впускного OE 11 1223.04 Альянс Китай 07.05.26
1026090GG020 JAC Катушка зажигания JAC S3 OE 27 5098.44 Альянс Китай 07.05.26
5002030LE090 JAC Кронштейн JAC N120 КАМАЗ Компас-12 кабины правый OE 19 7366.98 Альянс Китай 07.05.26
612600030042 SHACMAN Шатун SHACMAN SHAANXI OE 10 6900.32 Альянс Китай 07.05.26
2200100LE790 JAC Вал карданный JAC N80,N90 КАМАЗ Компас-9 в сборе OE 22 43186.80 Альянс Китай 07.05.26
1026025GH200 JAC Датчик кислорода JAC JS6 OE 5 7501.31 Альянс Китай 07.05.26
AZ9370312160-MX MOVELEX Вал карданный SITRAK HOWO задний MOVELEX 14 33227.00 Альянс Китай 07.05.26
5DS50T-1701085 JAC Пробка JAC N120,N350 КАМАЗ Компас-12 КПП сливная OE 28 727.40 Альянс Китай 07.05.26
DZ97259190400 SHACMAN Воздухозаборник SHACMAN SHAANXI OE 4 9270.17 Альянс Китай 07.05.26
4205810448 JAC Сальник JAC N56 хвостовика редуктора заднего моста OE 20 471.48 Альянс Китай 07.05.26
DZ9112340140 SHACMAN Вал SHACMAN SHAANXI тормозной правый (мост HDZ300) OE 13 2047.16 Альянс Китай 07.05.26
1002024FE010 JAC Кольцо уплотнительное JAC N56 фланца насоса топливного OE 54 589.51 Альянс Китай 07.05.26
5206015-C6100 DONGFENG Уплотнитель стекла DONGFENG ветрового OE 18 3057.32 Альянс Китай 07.05.26
AZ9100340012 SITRAK Пружина SITRAK HOWO колодок тормозных задних OE 2 128.71 Альянс Китай 07.05.26
1609100U8710XZ JAC Цилиндр сцепления рабочий JAC S3 OE 8 2471.25 Альянс Китай 07.05.26
QH70-4211402-2 SHACMAN Цилиндр SHACMAN SHAANXI механизма переключения OE 26 4082.12 Альянс Китай 07.05.26
3001101U7300 JAC Кулак поворотный JAC J7 левый OE 17 7421.15 Альянс Китай 07.05.26
WG1641230026-MX MOVELEX Крыло SITRAK HOWO кабины заднее правое MOVELEX 6 365.92 Альянс Китай 07.05.26
14910-05000 JAC Клипса JAC OE 690 4.89 Альянс Китай 07.05.26
2803270U7101 JAC Клипса JAC S3,S5 SOLLERS Atlant крепления бампера переднего OE 53 19.57 Альянс Китай 07.05.26
B01-05005-1500010 JAC Блок управления ПЖД JAC N120,N200 OE 4 47698.60 Альянс Китай 07.05.26
3088984X SHACMAN Прокладка SHACMAN SHAANXI дв.ISM11 турбокомпрессора OE 11 449.57 Альянс Китай 07.05.26
4202010LE35J JAC Соединитель JAC N120 КАМАЗ Компас-12 угловой воздушный OE 46 354.68 Альянс Китай 07.05.26
4133200P306A JAC Фонарь задний JAC T8Pro правый OE 13 13951.90 Альянс Китай 07.05.26
8125030LE740 JAC Трубка JAC N120 КАМАЗ Компас-12 отопителя салона к радиатору OE 15 653.72 Альянс Китай 07.05.26
DZ97189721340 SHACMAN Повторитель поворота SHACMAN SHAANXI X3000 желтый правый OE 30 590.48 Альянс Китай 07.05.26
612630060537 WEICHAI Крыльчатка SHACMAN SHAANXI дв.WP12 вентилятора WEICHAI 1 6440.38 Альянс Китай 07.05.26
1004020GD190 JAC Шатун JAC T6 (бенз.) OE 31 4827.34 Альянс Китай 07.05.26
6DS50T-1701082 JAC Шестерня КПП JAC N120 КАМАЗ Компас-12 заднего хода коробки передач OE 12 6402.62 Альянс Китай 07.05.26
DZ16231340116 SHACMAN Замок двери SHACMAN SHAANXI X6000 правой OE 10 3021.33 Альянс Китай 07.05.26
3402200U2212 JAC Колонка рулевая JAC S3 в сборе OE 8 80749.50 Альянс Китай 07.05.26
WG2229000040 SITRAK Прокладка SITRAK HOWO задней крышки КПП HW19710T OE 11 233.02 Альянс Китай 07.05.26
1108929500018 FOTON Амортизатор FOTON 1089,5121 задний OE 16 1498.16 Альянс Китай 07.05.26
1109120U8710 JAC Фильтр воздушный JAC JS4 OE 20 846.25 Альянс Китай 07.05.26
2916014LE058 JAC Шпилька JAC N80,N90 стойки стабилизатора заднего OE 89 158.38 Альянс Китай 07.05.26
DZ91189550023 SHACMAN Крышка бака топливного SHACMAN SHAANXI X3000,X6000 с ключами OE 130 1317.60 Альянс Китай 07.05.26
612600080875 SHACMAN Датчик давления масла SHAANXI SHACMAN дв.WP10,WP12 OE 22 5488.17 Альянс Китай 07.05.26
6DS80T-1701157 JAC Прокладка JAC OE 1 908.71 Альянс Китай 07.05.26
2801213-2197/C FAW Плита FAW J7,4180 устройства седельного монтажная OE 6 17170.30 Альянс Китай 07.05.26
199014520193 SHACMAN Шайба SHACMAN SHAANXI балансира регулировочная OE 113 175.68 Альянс Китай 07.05.26
DZ14251340041 SHACMAN Ручка SHACMAN SHAANXI X3000 двери наружная левая OE 24 1014.43 Альянс Китай 07.05.26
DZ97189623065 SHACMAN Накладка бампера SHACMAN SHAANXI X5000 переднего центральная OE 1 1726.30 Альянс Китай 07.05.26
Q1840820F61 JAC Болт JAC N59,N75,N80,N90,N120,T6,S7,J7,JS6 КАМАЗ Компас-5/9/12 OE 184 18.21 Альянс Китай 07.05.26
DZ9X259954203 SHACMAN Заглушка SHACMAN SHAANXI X6000 крыла OE 17 312.32 Альянс Китай 07.05.26
1025014FD020 JAC Шкив JAC N35,T6 КАМАЗ Компас-5 SOLLERS Argo 2.0 вентилятора OE 9 1122.75 Альянс Китай 07.05.26
5103022-50V/A-P5 FAW Подножка FAW J6,3250,3310 правая (корпус) (серая) OE 1 7280.35 Альянс Китай 07.05.26
3406010LE790 JAC Шланг JAC N80,N90 КАМАЗ Компас-9 ГУРа высокого давления OE 10 3072.28 Альянс Китай 07.05.26
1706265-MF622A01 JAC Подшипник выжимной МОСКВИЧ 3 JAC JS4,J7 гидравлический OE 18 15884.80 Альянс Китай 07.05.26
4121100U3480 JAC Фара МОСКВИЧ 3 JAC JS4 левая (галогенная) OE 77 20582.30 Альянс Китай 07.05.26
5205010-1HB1 FAW Мотор-редуктор стеклоочистителя FAW J5 OE 3 3040.24 Альянс Китай 07.05.26
C2870228 DONGFENG Корпус DONGFENG GX масляного фильтра OE 5 11630.30 Альянс Китай 07.05.26
C5683487 DONGFENG Компрессор DONGFENG GX кондиционера OE 8 28900.60 Альянс Китай 07.05.26
82320-Y4010XG JAC Ручка JAC N350 двери правой внутренняя OE 29 587.52 Альянс Китай 07.05.26
3103610LE010 JAC Сальник JAC N56 ступицы передней OE 146 86.84 Альянс Китай 07.05.26
612630050009 JAC Траверса JAC N350 (WP10.336E53) клапанов впускных OE 2 762.05 Альянс Китай 07.05.26
1301200V5080 JAC Теплообменник МОСКВИЧ 3 JAC JS4,J7 масляный OE 10 10338.80 Альянс Китай 07.05.26
190003963114 SHACMAN Масленка SHACMAN SHAANXI X3000 кулака поворотного (мост HDZ7.3T/HDZ9.5T) OE 192 37.21 Альянс Китай 07.05.26
DZ14251340174 SHACMAN Ручка SHACMAN SHAANXI X5000 двери наружная правая OE 1 1969.08 Альянс Китай 07.05.26
3406700P3140 JAC Насос гидроусилителя JAC T6 SOLLERS ST6 (16-) OE 11 19177.00 Альянс Китай 07.05.26
C01056 SHACMAN Шпилька SHACMAN SHAANXI корпуса КПП OE 267 101.87 Альянс Китай 07.05.26
1001010P3030 JAC Опора двигателя JAC T6 SOLLERS ST6 левая OE 6 1436.67 Альянс Китай 07.05.26
2402B-345-A JAC Шестерня JAC N120 КАМАЗ Компас-12 дифференциала планетарная OE 38 1757.51 Альянс Китай 07.05.26
81.25505.0989 SHACMAN Выключатель концевой SHACMAN SHAANXI двери OE 98 122.61 Альянс Китай 07.05.26
2804400U2400 JAC Усилитель бампера JAC JS6 заднего OE 8 7175.17 Альянс Китай 07.05.26
4121100Y801101 JAC Фара JAC K7 левая OE 3 46949.00 Альянс Китай 07.05.26

Страницы